[[{"header":{"parameterUnit":"m.s-1","parameterCategory":1,"la1":30.2991,"la2":30.254,"lo1":-89.0895,"lo2":-89.0444,"dy":0.0017,"dx":0.0017,"nx":28,"ny":28,"refTime":"2023-10-16T09:00:00:Z","depth":0,"parameterNumber":2,"parameterNumberName":"U-component_of_WINDS"},"data":[0,0,0,0,0,0,0,0,0,0,0,0,0,0,0,0,0,0,0,0,0,0,0,0,0,0,0,0,0,0,0,0,0,0,0,0,0,0,0,0,0,0,0,0,0,0,0,0,0,0,0,0,0,0,0,0,0,0,0.3377,0.3376,0,0.3323,0.3322,0.3322,0.3365,0.3366,0.3368,0.337,0.3311,0.3307,0.3304,0,0,0,0,0,0,0,0,0,0,0,0,0,0.3513,0.351,0.3377,0.3376,0.3376,0.3323,0.3322,0.3322,0.3364,0.3367,0.3369,0.3371,0.3312,0.3308,0.3304,0,0,0,0,0,0,0,0,0,0,0,0,0,0.3455,0.3509,0.3377,0.3391,0.3391,0.3323,0.3322,0.3321,0.3364,0.3367,0.3369,0.3372,0.3313,0.3308,0.3303,0.3217,0,0,0.3288,0.3286,0,0,0,0,0,0,0,0,0.3459,0.345,0.3389,0.339,0.339,0.3354,0.3348,0.3286,0.3363,0.3374,0.337,0.3373,0.3322,0.3317,0.33,0.3215,0.3212,0.3288,0.3285,0.3283,0.3281,0,0,0,0,0,0,0,0.3463,0.3453,0.3356,0.3388,0.3389,0.3398,0.3393,0.3337,0.3333,0.3373,0.3376,0.337,0.3323,0.3305,0.3299,0.3211,0.3288,0.3283,0.328,0.3278,0.305,0.3047,0,0,0,0,0,0,0.3466,0.3456,0.3357,0.3354,0.3432,0.3393,0.3388,0.3362,0.3334,0.3332,0.3367,0.3372,0.3312,0.3305,0.3297,0.3193,0.3283,0.3278,0.3275,0.3053,0.3049,0.3046,0,0,0,0,0,0,0.3469,0.3457,0.3359,0.3406,0.3394,0.3388,0.3359,0.336,0.3342,0.333,0.3329,0.335,0.3314,0.3304,0.3237,0.3192,0.3276,0.3271,0.3057,0.3052,0.3048,0.2985,0,0,0,0,0,0,0.3472,0.3457,0.3426,0.3405,0.3392,0.3301,0.3357,0.3357,0.3334,0.3339,0.3313,0.3311,0.3316,0.3244,0.3232,0.3186,0.3267,0.3061,0.3055,0.3049,0.2991,0.2978,0.2968,0,0,0,0,0,0.3477,0.341,0.3424,0.3412,0.3352,0.3298,0.329,0.3298,0.333,0.3297,0.3289,0.3312,0.3199,0.3237,0.3223,0.3176,0.3064,0.3056,0.305,0.2996,0.2981,0.2968,0,0,0,0,0,0,0.3424,0.3407,0.3423,0.3347,0.3324,0.3306,0.3264,0.3282,0.3248,0.3254,0.3264,0.3258,0.3186,0.3175,0.3217,0.309,0.3136,0.3126,0.31,0.3086,0.3074,0.3077,0.3263,0,0,0,0,0,0.3404,0.3363,0.335,0.3284,0.3272,0.327,0.3247,0.3255,0.3231,0.3221,0.3208,0.3182,0.3141,0.3113,0.3075,0.299,0.2984,0.2951,0.294,0.293,0.292,0.2873,0.2857,0.3023,0.3023,0.3023,0,0,0.3361,0.3347,0.332,0.3273,0.3256,0.3211,0.3261,0.3213,0.3179,0.3213,0.3148,0.3137,0.3109,0.3032,0.2998,0.3021,0.2874,0.2921,0.2914,0.2909,0.2864,0.2848,0.2834,0.3019,0.3019,0.302,0,0,0.3259,0.3246,0.3188,0.3171,0.3145,0.3144,0.313,0.3109,0.3104,0.3039,0.3063,0.3023,0.2952,0.293,0.291,0.2801,0.2819,0.2788,0.2727,0.268,0.2667,0.2656,0.2614,0.2599,0.2779,0.2779,0.2779,0,0.3208,0.3144,0.3156,0.3105,0.3083,0.3113,0.3054,0.3036,0.2998,0.2981,0.3008,0.2918,0.2902,0.2819,0.2792,0.2776,0.2759,0.2789,0.2669,0.2657,0.2646,0.2606,0.2591,0.2775,0.2775,0.2776,0.2776,0,0.3081,0.3036,0.2993,0.2956,0.293,0.2875,0.2877,0.2848,0.2859,0.2855,0.2787,0.2769,0.2726,0.2708,0.2718,0.2626,0.264,0.2668,0.2714,0.2626,0.2589,0.2574,0.2769,0.2771,0.2772,0.2773,0,0,0.2943,0.2915,0.2898,0.2881,0.2855,0.2819,0.2765,0.2725,0.2698,0.2672,0.2625,0.2564,0.2589,0.2566,0.2574,0.2533,0.2444,0.2565,0.2565,0.2541,0.2339,0.2316,0.2298,0.2458,0.2455,0.2453,0.234,0,0.2838,0.2745,0.2754,0.2665,0.2622,0.265,0.2603,0.2581,0.2575,0.2537,0.2531,0.2487,0.2525,0.2511,0.2472,0.2463,0.2403,0.2472,0.2411,0.2409,0.2414,0.2279,0.2255,0.2149,0.2326,0.2323,0.2321,0,0.2703,0.2672,0.2578,0.2557,0.2539,0.2497,0.2459,0.2423,0.2398,0.2397,0.2371,0.2386,0.2329,0.2379,0.23,0.2347,0.2323,0.2315,0.2311,0.2303,0.2357,0.2264,0.2116,0.2099,0.2299,0.2301,0.2302,0,0.2607,0.2542,0.2477,0.2463,0.2437,0.2406,0.2394,0.2372,0.2346,0.2314,0.2297,0.2258,0.2235,0.2204,0.2207,0.2243,0.2126,0.2176,0.2121,0.212,0.2092,0.2093,0.1935,0.2082,0.2082,0.2083,0.2083,0,0.2487,0.2428,0.2434,0.2394,0.2328,0.2339,0.2273,0.2264,0.2244,0.2201,0.2224,0.2183,0.2191,0.2149,0.2151,0.2084,0.2075,0.207,0.2071,0.2066,0.2066,0.2048,0.2054,0.2078,0.2079,0.208,0.2081,0,0.2368,0.237,0.2301,0.2283,0.2277,0.2229,0.2213,0.2173,0.2171,0.2116,0.2104,0.2099,0.2051,0.2052,0.1998,0.1999,0.1915,0.1926,0.1924,0.1925,0.1868,0.1872,0.169,0.1665,0.1831,0.183,0.1829,0,0.229,0.2245,0.2222,0.2196,0.2182,0.2139,0.2113,0.2123,0.2095,0.2062,0.2026,0.1981,0.1945,0.1867,0.1858,0.1816,0.1823,0.1763,0.1817,0.1813,0.1818,0.182,0.1814,0.1751,0.1749,0.1747,0.1746,0,0.215,0.2153,0.2116,0.2078,0.2047,0.2018,0.1991,0.1967,0.1974,0.1941,0.1893,0.1865,0.1809,0.1763,0.1723,0.1708,0.1726,0.173,0.1714,0.1707,0.1706,0.1703,0.1891,0.1733,0.1734,0.1735,0.1736,0.1736,0.2046,0.2007,0.1985,0.1942,0.1923,0.1897,0.1859,0.1852,0.1812,0.1768,0.1777,0.1722,0.1697,0.1644,0.1627,0.1583,0.1604,0.1582,0.1576,0.1569,0.1562,0.1716,0.1576,0.1576,0.1577,0.1577,0.1577,0,0.1904,0.1892,0.1852,0.1814,0.178,0.1803,0.1774,0.1743,0.1695,0.1671,0.1635,0.1579,0.1534,0.1522,0.1478,0.1445,0.1452,0.1433,0.1434,0.143,0.1547,0.1563,0.1428,0.1428,0.1428,0.1428,0.1428,0.1428,0.1826,0.176,0.1761,0.1684,0.1672,0.1619,0.16,0.1576,0.1556,0.1493,0.1456,0.1449,0.1428,0.1383,0.1343,0.134,0.1321,0.1298,0.1298,0.1407,0.1422,0.1436,0.1451,0.1294,0.1294,0.1184,0.1183,0.1182]},{"header":{"parameterUnit":"m.s-1","parameterCategory":1,"la1":30.2991,"la2":30.254,"lo1":-89.0895,"lo2":-89.0444,"dy":0.0017,"dx":0.0017,"nx":28,"ny":28,"refTime":"2023-10-16T09:00:00:Z","depth":0,"parameterNumber":3,"parameterNumberName":"V-component_of_WINDS"},"data":[0,0,0,0,0,0,0,0,0,0,0,0,0,0,0,0,0,0,0,0,0,0,0,0,0,0,0,0,0,0,0,0,0,0,0,0,0,0,0,0,0,0,0,0,0,0,0,0,0,0,0,0,0,0,0,0,0,0,-3.4712,-3.4713,0,-3.4805,-3.4806,-3.4807,-3.4775,-3.4773,-3.4771,-3.4769,-3.4862,-3.4866,-3.487,0,0,0,0,0,0,0,0,0,0,0,0,0,-3.4506,-3.451,-3.4712,-3.4713,-3.4715,-3.4805,-3.4806,-3.4807,-3.4775,-3.4773,-3.477,-3.4768,-3.486,-3.4865,-3.4871,0,0,0,0,0,0,0,0,0,0,0,0,0,-3.4597,-3.4511,-3.4712,-3.471,-3.471,-3.4804,-3.4806,-3.4807,-3.4776,-3.4773,-3.477,-3.4767,-3.4859,-3.4865,-3.4871,-3.4973,0,0,-3.4891,-3.4894,0,0,0,0,0,0,0,0,-3.4591,-3.4604,-3.4709,-3.471,-3.4711,-3.4775,-3.4767,-3.4863,-3.4776,-3.4751,-3.4769,-3.4765,-3.4835,-3.4844,-3.4868,-3.4977,-3.4981,-3.4892,-3.4896,-3.4899,-3.4901,0,0,0,0,0,0,0,-3.4585,-3.46,-3.4749,-3.471,-3.4712,-3.4703,-3.4713,-3.4785,-3.4809,-3.4753,-3.4751,-3.4762,-3.4835,-3.4861,-3.4869,-3.4983,-3.4892,-3.4898,-3.4902,-3.4904,-3.5179,-3.5182,0,0,0,0,0,0,-3.4579,-3.4595,-3.4746,-3.4751,-3.4642,-3.4709,-3.472,-3.4758,-3.4808,-3.4813,-3.4765,-3.476,-3.4852,-3.4862,-3.4873,-3.4994,-3.4899,-3.4905,-3.4909,-3.5176,-3.518,-3.5184,0,0,0,0,0,0,-3.4574,-3.4592,-3.4742,-3.4673,-3.4691,-3.4716,-3.4759,-3.4761,-3.4787,-3.4817,-3.4821,-3.4787,-3.485,-3.4863,-3.4948,-3.4997,-3.4908,-3.4914,-3.5172,-3.5177,-3.5182,-3.5238,0,0,0,0,0,0,-3.4569,-3.4591,-3.4631,-3.4674,-3.4695,-3.4817,-3.4762,-3.4765,-3.4799,-3.4794,-3.4839,-3.4844,-3.4848,-3.4939,-3.4955,-3.5004,-3.4919,-3.5168,-3.5174,-3.518,-3.5232,-3.5245,-3.5255,0,0,0,0,0,-3.4561,-3.4643,-3.4633,-3.4651,-3.4745,-3.482,-3.4832,-3.4836,-3.4803,-3.4842,-3.4861,-3.4842,-3.4989,-3.4948,-3.4965,-3.5018,-3.5165,-3.5172,-3.518,-3.5227,-3.5242,-3.5255,0,0,0,0,0,0,-3.4604,-3.4648,-3.4638,-3.4736,-3.4774,-3.4814,-3.4864,-3.4852,-3.49,-3.4894,-3.4896,-3.4907,-3.4994,-3.5014,-3.4967,-3.5118,-3.5072,-3.5083,-3.5101,-3.5116,-3.5128,-3.512,-3.4924,0,0,0,0,0,-3.4625,-3.4683,-3.4718,-3.4801,-3.4821,-3.4839,-3.4872,-3.4872,-3.4912,-3.4928,-3.4953,-3.4992,-3.5047,-3.5083,-3.5135,-3.5235,-3.5244,-3.528,-3.5291,-3.5301,-3.531,-3.5364,-3.538,-3.5209,-3.5208,-3.5208,0,0,-3.4668,-3.47,-3.4736,-3.481,-3.484,-3.4899,-3.4853,-3.4918,-3.4961,-3.4937,-3.5019,-3.5039,-3.5082,-3.5175,-3.5217,-3.5195,-3.536,-3.531,-3.5318,-3.5322,-3.5373,-3.539,-3.5404,-3.5214,-3.5213,-3.5212,0,0,-3.4778,-3.4808,-3.4879,-3.491,-3.4956,-3.4968,-3.4985,-3.5027,-3.504,-3.5121,-3.5105,-3.5156,-3.5251,-3.5282,-3.531,-3.5431,-3.5415,-3.5448,-3.5508,-3.556,-3.5574,-3.5585,-3.5628,-3.5643,-3.5457,-3.5458,-3.5458,0,-3.4826,-3.4914,-3.4918,-3.4984,-3.5016,-3.4998,-3.507,-3.51,-3.516,-3.5183,-3.5157,-3.5275,-3.5303,-3.5402,-3.5431,-3.5455,-3.5474,-3.5442,-3.5571,-3.5583,-3.5595,-3.5635,-3.5651,-3.5461,-3.5461,-3.546,-3.546,0,-3.4971,-3.5033,-3.5085,-3.5144,-3.5183,-3.5251,-3.5264,-3.5303,-3.5299,-3.5313,-3.5396,-3.5429,-3.5487,-3.5511,-3.5508,-3.561,-3.5595,-3.557,-3.5524,-3.5615,-3.5652,-3.5668,-3.5466,-3.5465,-3.5464,-3.5463,0,0,-3.511,-3.5169,-3.5188,-3.5215,-3.5264,-3.5311,-3.5378,-3.5435,-3.5468,-3.551,-3.5566,-3.5646,-3.5624,-3.5656,-3.5657,-3.5703,-3.5795,-3.5672,-3.5673,-3.5693,-3.5908,-3.5925,-3.5943,-3.5785,-3.5788,-3.579,-3.5904,0,-3.5222,-3.5341,-3.5346,-3.5454,-3.551,-3.5493,-3.5552,-3.5588,-3.5603,-3.5652,-3.5668,-3.5725,-3.5691,-3.5711,-3.5755,-3.5774,-3.5838,-3.5766,-3.5836,-3.5838,-3.5825,-3.5963,-3.5982,-3.6088,-3.5919,-3.5921,-3.5923,0,-3.537,-3.5416,-3.553,-3.557,-3.5594,-3.5647,-3.5699,-3.5747,-3.5787,-3.5794,-3.583,-3.5824,-3.5892,-3.5843,-3.5937,-3.5888,-3.5917,-3.593,-3.5934,-3.594,-3.5886,-3.5972,-3.6122,-3.6138,-3.5947,-3.5945,-3.5943,0,-3.5458,-3.555,-3.5629,-3.5652,-3.5702,-3.5739,-3.5761,-3.5798,-3.5832,-3.5877,-3.5899,-3.5952,-3.598,-3.6021,-3.6029,-3.5993,-3.6122,-3.6074,-3.6129,-3.6129,-3.6157,-3.6155,-3.6313,-3.6177,-3.6177,-3.6176,-3.6176,0,-3.5583,-3.5653,-3.567,-3.5719,-3.5797,-3.5801,-3.5877,-3.5896,-3.593,-3.5981,-3.597,-3.6018,-3.6026,-3.6076,-3.6083,-3.6158,-3.6172,-3.6179,-3.618,-3.618,-3.6179,-3.6198,-3.6191,-3.618,-3.6179,-3.6179,-3.6178,0,-3.5695,-3.5709,-3.5795,-3.5834,-3.5846,-3.5901,-3.5934,-3.5981,-3.5994,-3.606,-3.6075,-3.6096,-3.6155,-3.6167,-3.6236,-3.624,-3.633,-3.6324,-3.6317,-3.6316,-3.637,-3.6364,-3.6545,-3.6569,-3.6418,-3.642,-3.6421,0,-3.5774,-3.5827,-3.5872,-3.5906,-3.593,-3.5985,-3.6019,-3.6025,-3.6061,-3.6111,-3.6151,-3.6208,-3.6254,-3.6349,-3.637,-3.6423,-3.6417,-3.6477,-3.6425,-3.6423,-3.6417,-3.6413,-3.6418,-3.6486,-3.6488,-3.6489,-3.649,0,-3.5912,-3.5916,-3.5966,-3.6018,-3.606,-3.6101,-3.6141,-3.6169,-3.618,-3.6221,-3.6281,-3.6317,-3.6388,-3.6444,-3.6497,-3.6519,-3.6507,-3.6507,-3.6522,-3.6522,-3.6516,-3.6519,-3.6343,-3.6502,-3.6501,-3.65,-3.65,-3.6499,-3.6009,-3.6055,-3.6094,-3.615,-3.618,-3.6217,-3.6262,-3.6281,-3.6331,-3.6389,-3.639,-3.6455,-3.6493,-3.6562,-3.6587,-3.6638,-3.6619,-3.6642,-3.6647,-3.6653,-3.6657,-3.6508,-3.6648,-3.6647,-3.6647,-3.6647,-3.6647,0,-3.6145,-3.6169,-3.622,-3.6276,-3.632,-3.6305,-3.6347,-3.6385,-3.6442,-3.6479,-3.6524,-3.6593,-3.6648,-3.6673,-3.6727,-3.6762,-3.6758,-3.6776,-3.6773,-3.6779,-3.6671,-3.6652,-3.6779,-3.6779,-3.6779,-3.6779,-3.6779,-3.6779,-3.6221,-3.6299,-3.6307,-3.6399,-3.6422,-3.6486,-3.6512,-3.6545,-3.6574,-3.6651,-3.6697,-3.6713,-3.6745,-3.6801,-3.685,-3.6856,-3.6876,-3.6897,-3.69,-3.68,-3.6786,-3.6773,-3.6755,-3.6902,-3.6902,-3.7003,-3.7004,-3.7005]}]]